Regional Weather Roundup
Issued by NWS

Home | Current Version | Previous Version | Graphics & Text | Print | Product List | Glossary On
Versions: 1 2 3 4 5 6 7 8 9 10 11 12 13 14 15 16 17 18 19 20 21 22 23 24 25 26 27 28 29 30 31 32 33 34 35 36 37 38 39 40 41 42 43 44 45 46 47 48 49 50
187
ASUS45 KCYS 191410
RWRWY

WYOMING REGIONAL WEATHER ROUNDUP
NATIONAL WEATHER SERVICE CHEYENNE WY
800 AM MDT SAT AUG 19 2017

NOTE:  "FAIR" INDICATES FEW OR NO CLOUDS BELOW 12,000 FEET
WITH NO SIGNIFICANT WEATHER AND/OR OBSTRUCTIONS TO VISIBILITY.

WYZ001-191500-
YELLOWSTONE NATIONAL PARK

CITY           SKY/WX    TMP DP  RH WIND       PRES   REMARKS
LK YELLOWSTONE   N/A     42  39  89 CALM      30.30R
W YELLOWSTONE  NOT AVBL

$$
WYZ002>013-054>058-071-098>099-191500-
NORTHERN WYOMING

CITY           SKY/WX    TMP DP  RH WIND       PRES   REMARKS
JACKSON        FAIR      44  33  65 N3        30.25R
CODY           FAIR      66  37  34 MISG      30.07R
GREYBULL       FAIR      57  40  52 SE3       29.99R
WORLAND        FAIR      62  36  37 CALM      30.01R
SHERIDAN       PTSUNNY   64  45  49 S5        29.98S
BUFFALO        FAIR      76  31  19 NW9       30.05R
GILLETTE         N/A     74  37  26 W9        29.97R
HULETT         FAIR      73  43  33 SW9       29.96S
NEWCASTLE      FAIR      63  43  48 CALM      29.99R

$$
WYZ014>020-022>026-101>103-191500-
CENTRAL WYOMING

CITY           SKY/WX    TMP DP  RH WIND       PRES   REMARKS
BIG PINEY      FAIR      44  33  65 CALM      30.27R
PINEDALE       FAIR      43  32  65 NW7       30.28R
DUBOIS         FAIR      52  28  40 NW10      30.24R
LANDER           N/A    N/A N/A N/A MISG      30.10R
RIVERTON       FAIR      66  28  24 W14       30.10R
CASPER         FAIR      67  37  33 W6        30.08R
DOUGLAS        FAIR      59  44  57 NW8       30.05S

$$
WYZ021-027>030-104>119-191500-
SOUTHERN WYOMING

CITY           SKY/WX    TMP DP  RH WIND       PRES   REMARKS
EVANSTON       FAIR      56  30  37 S5        30.28R
KEMMERER         N/A     52  32  46 N6        30.29R
FORT BRIDGER   FAIR      65  24  21 W7        30.29S
ROCK SPRINGS   FAIR      60  31  33 CALM      30.24R
RAWLINS        FAIR      60  33  36 SE3       30.23R
SARATOGA       FAIR      55  37  50 E14       30.27R
LARAMIE        FAIR      60  38  43 SW8       30.24S
CHEYENNE       FAIR      67  38  34 W10       30.15S
TORRINGTON     FAIR      58  49  72 CALM      29.99R
PINE BLUFFS    FAIR      61  52  72 S6        30.08F

$$




USA.gov is the U.S. government's official web portal to all federal, state and local government web resources and services.